Mosby, MO

2:45 AM CDT on September 19, 2019 (GMT -0500)
Clay County Regional

Weather History for KGPH - July, 2019

Change the Weather History Date:

Saturday, July 20, 2019

  Actual Average (WUND) Record (WUND)
Temperature  
Mean Temperature 86 °F -  
Max Temperature 95 °F - - (-1)
Min Temperature 78 °F - - (-1)
Cooling Degree Days 22    
Growing Degree Days 36 (Base 50)    
Moisture  
Dew Point 71 °F    
Average Humidity 60    
Maximum Humidity 74    
Minimum Humidity 47    
Precipitation  
Precipitation 0.00 in - - ()
Sea Level Pressure  
Sea Level Pressure 29.84 in    
Wind  
Wind Speed 5 mph (South)    
Max Wind Speed 15 mph    
Max Gust Speed 24 mph    
Visibility 10 miles    
Events Thunderstorm    
Averages and records for this station are not official NWS values.
T = Trace of Precipitation, MM = Missing Value Source: NWS Daily Summary

Daily Weather History Graph

Daily Weather History Graph

Search for Another Location

Airport or City:

Astronomy

Jul. 20, 2019 Rise Set
Actual Time 6:06 AM CDT 8:40 PM CDT
Civil Twilight 5:35 AM CDT 9:10 PM CDT
Nautical Twilight 4:57 AM CDT 9:49 PM CDT
Astronomical Twilight 4:13 AM CDT 10:32 PM CDT
Moon 11:08 PM CDT (7/20) 9:30 AM CDT (7/20)
Length of Visible Light 15h 35m
Length of Day
14h 33m
Waning Gibbous, 87% of the Moon is Illuminated
Jul 20
Waning Gibbous
Jul 24
Last Quarter
Jul 31
New
Aug 7
First Quarter
Aug 15
Full

Hourly Weather History & Observations

Time (CDT) Temp. Heat Index Dew Point Humidity Pressure Visibility Wind Dir Wind Speed Gust Speed Precip Events Conditions
12:35 AM 86.0 °F 90.4 °F 69.8 °F 58% 29.85 in 10.0 mi South 4.6 mph - N/A   Clear
12:55 AM 86.0 °F 90.4 °F 69.8 °F 58% 29.85 in 10.0 mi South 4.6 mph - N/A   Clear
1:35 AM 86.0 °F 90.4 °F 69.8 °F 58% 29.85 in 10.0 mi SSW 3.5 mph - N/A   Clear
2:55 AM 82.4 °F 87.2 °F 71.6 °F 70% 29.86 in 10.0 mi Calm Calm - N/A   Clear
5:15 AM 78.8 °F - 69.8 °F 74% 29.85 in 10.0 mi Calm Calm - N/A   Clear
6:55 AM 78.8 °F - 69.8 °F 74% 29.87 in 10.0 mi Calm Calm - N/A   Clear
7:15 AM 78.8 °F - 69.8 °F 74% 29.87 in 10.0 mi Calm Calm - N/A   Clear
7:35 AM 78.8 °F - 69.8 °F 74% 29.87 in 10.0 mi SSE 4.6 mph - N/A   Clear
7:55 AM 78.8 °F - 69.8 °F 74% 29.87 in 10.0 mi South 3.5 mph - N/A   Clear
8:55 AM 82.4 °F 86.3 °F 69.8 °F 66% 29.86 in 10.0 mi South 4.6 mph - N/A   Clear
9:15 AM 82.4 °F 86.3 °F 69.8 °F 66% 29.85 in 10.0 mi South 6.9 mph - N/A   Clear
9:35 AM 84.2 °F 88.4 °F 69.8 °F 62% 29.85 in 10.0 mi South 8.1 mph - N/A   Clear
10:15 AM 86.0 °F 90.4 °F 69.8 °F 58% 29.85 in 10.0 mi South 8.1 mph 16.1 mph N/A   Clear
10:55 AM 87.8 °F 92.6 °F 69.8 °F 55% 29.85 in - South 8.1 mph - N/A   Clear
11:15 AM 87.8 °F 92.6 °F 69.8 °F 55% 29.85 in - SSW 10.4 mph 18.4 mph N/A   Clear
11:35 AM 89.6 °F 94.7 °F 69.8 °F 52% 29.84 in - SSW 9.2 mph - N/A   Clear
11:55 AM 89.6 °F 94.7 °F 69.8 °F 52% 29.85 in - Calm Calm - N/A   Clear
12:15 PM 89.6 °F 94.7 °F 69.8 °F 52% 29.85 in - South 10.4 mph - N/A   Clear
1:35 PM 91.4 °F 96.8 °F 69.8 °F 49% 29.82 in - South 15.0 mph 19.6 mph N/A   Clear
3:35 PM 95.0 °F 103.2 °F 71.6 °F 47% 29.82 in - South 6.9 mph 17.3 mph N/A   Clear
3:55 PM 95.0 °F 103.2 °F 71.6 °F 47% 29.81 in - South 10.4 mph - N/A   Clear
5:55 PM 95.0 °F 103.2 °F 71.6 °F 47% 29.80 in - South 8.1 mph - N/A   Clear
7:35 PM 95.0 °F 104.5 °F 73.4 °F 49% 29.78 in - South 9.2 mph - N/A   Clear
7:55 PM 93.2 °F 102.4 °F 73.4 °F 52% 29.79 in 10.0 mi South 6.9 mph - N/A   Clear
8:35 PM 91.4 °F 100.1 °F 73.4 °F 55% 29.80 in 10.0 mi South 4.6 mph - N/A   Clear
8:55 PM 89.6 °F 98.2 °F 73.4 °F 59% 29.80 in 10.0 mi South 5.8 mph - N/A   Clear
10:15 PM 87.8 °F 95.6 °F 73.4 °F 62% 29.83 in 10.0 mi Calm Calm - N/A   Clear
10:55 PM 86.0 °F 93.4 °F 73.4 °F 66% 29.85 in 10.0 mi Calm Calm - N/A   Scattered Clouds
11:55 PM 80.6 °F 83.2 °F 68.0 °F 65% 29.90 in 10.0 mi East 15.0 mph 24.2 mph N/A Thunderstorm Overcast